Regional Weather Roundup
Issued by NWS Kansas City/Pleasant Hill, MO

Home | Current Version | Previous Version | Graphics & Text | Print | Product List | Glossary Off
Versions: 1 2 3 4 5 6 7 8 9 10 11 12 13 14 15 16 17 18 19 20 21 22 23 24 25 26 27 28 29 30 31 32 33 34 35 36 37 38 39 40 41 42 43 44 45 46 47 48 49 50

000
ASUS43 KEAX 262210
RWREAX

WEATHER ROUNDUP FOR EASTERN KANSAS AND NORTHWEST MISSOURI
NATIONAL WEATHER SERVICE KANSAS CITY/PLEASANT HILL MO
500 PM CDT SUN MAR 26 2017

KSZ040-057-103>105-MOZ028-029-037-043-262300-
...KANSAS CITY METROPOLITAN AREA...

CITY           SKY/WX    TMP DP  RH WIND       PRES   REMARKS
K.C. INTL      CLOUDY    50  44  80 N3        29.89F
K.C. DOWNTOWN  CLOUDY    53  44  71 CALM      29.89F
LEES SUMMIT    CLOUDY    54  45  71 SW3       29.90S
OLATHE - IXD   CLOUDY    53  45  74 NE6       29.88F
OLATHE - OJC   CLOUDY    52  46  80 NE3       29.88F
LAWRENCE       CLOUDY    54  46  74 N6        29.88F

$$

MOZ001>008-011>017-020>025-030>033-038>040-044>046-053-054-262300-
...NORTHERN AND CENTRAL MISSOURI...

CITY           SKY/WX    TMP DP  RH WIND       PRES   REMARKS
ST. JOSEPH     CLOUDY    50  43  77 N6        29.90F
MOSBY          CLOUDY    52  43  71 CALM      29.90S
WARRENSBURG    CLOUDY    54  45  71 SW6       29.90S
WHITEMAN AFB   CLOUDY    56  51  82 W3        29.89S
CLINTON        CLOUDY    55  48  76 CALM      29.91S
SEDALIA        CLOUDY    57  48  72 SW3       29.91S
WARSAW         NOT AVBL
CHILLICOTHE      N/A     52  44  74 NW3       29.92S
KIRKSVILLE     CLOUDY    50  44  80 W7        29.90S

$$

MOZ041-047>049-056>058-063>065-088>090-097-262300-
...EASTERN AND SOUTHERN MISSOURI...

CITY           SKY/WX    TMP DP  RH WIND       PRES   REMARKS
ST. LOUIS INTL PTSUNNY   62  49  62 W7        29.91R
SPIRIT OF STL  CLOUDY    62  51  67 W5        29.90S
COLUMBIA       CLOUDY    57  49  74 W6        29.91S
JEFFERSON CITY CLOUDY    62  49  62 W8        29.91R
ROLLA          SUNNY     62  50  64 W5        29.89S
OSAGE BEACH    CLOUDY   N/A N/A N/A CALM      29.92R
SPRINGFIELD    CLOUDY    66  49  54 SW10      29.88S
BRANSON        CLOUDY    68  48  49 CALM      29.90S
JOPLIN         CLOUDY    68  50  52 E10       29.83F
WEST PLAINS    CLOUDY    65  48  54 S9        29.92S

$$

IAZ060-094-KSZ022-034>040-054-083-096-NEZ052-066-093-262300-
...KANSAS...SOUTHEAST NEBRASKA AND IOWA...

CITY           SKY/WX    TMP DP  RH WIND       PRES   REMARKS
TOPEKA         CLOUDY    53  46  77 E7        29.86F
MANHATTAN      CLOUDY    53  45  74 E12       29.83F
EMPORIA        CLOUDY    53  48  83 E14       29.81F
CHANUTE        MOSUNNY   63  48  58 E10       29.80F
WICHITA        CLOUDY    57  54  89 E9        29.78S
OMAHA          CLOUDY    50  41  71 N9        29.90S
LINCOLN        CLOUDY    49  42  77 N5        29.90F
FALLS CITY     CLOUDY    49  43  80 N7        29.89F
LAMONI         CLOUDY    48  43  82 W8        29.89S
DES MOINES     CLOUDY    48  43  82 NW9       29.89S

$$




USA.gov is the U.S. government's official web portal to all federal, state and local government web resources and services.